• In Moldova, Republic
  • List of Countries
  • For 7 days
  • Water Temperature
  • Satellite Maps
  • Weather Map
  • Weather Widgets
  • user-avatar
    Login

    Hourly Weather Wien

    Today, 22 August, Tuesday

    Time Temperature Precipitation Wind Pressure Humidity
    00:00 +14°C° 0 mm 2 mps 748 mmHg 73%
    01:00 +14°C° 0 mm 2 mps 748 mmHg 75%
    02:00 +13°C° 0 mm 2 mps 748 mmHg 76%
    03:00 +13°C° 0 mm 2 mps 747 mmHg 77%
    04:00 +13°C° 0 mm 2 mps 747 mmHg 78%
    05:00 +14°C° 0 mm 2 mps 747 mmHg 74%
    06:00 +15°C° 0 mm 2 mps 747 mmHg 70%
    07:00 +16°C° 0 mm 2 mps 748 mmHg 65%
    08:00 +18°C° 0 mm 2 mps 747 mmHg 58%
    09:00 +19°C° 0 mm 2 mps 747 mmHg 52%
    10:00 +21°C° 0 mm 3 mps 747 mmHg 45%
    11:00 +22°C° 0 mm 3 mps 747 mmHg 43%
    12:00 +24°C° 0 mm 3 mps 746 mmHg 41%
    13:00 +24°C° 0 mm 3 mps 746 mmHg 39%
    14:00 +24°C° 0 mm 3 mps 745 mmHg 39%
    15:00 +23°C° 0 mm 4 mps 745 mmHg 40%
    16:00 +23°C° 0 mm 4 mps 745 mmHg 40%
    17:00 +21°C° 0 mm 3 mps 745 mmHg 46%
    18:00 +20°C° 0 mm 3 mps 745 mmHg 52%
    19:00 +18°C° 0 mm 2 mps 745 mmHg 58%
    20:00 +17°C° 0 mm 2 mps 745 mmHg 62%
    21:00 +16°C° 0 mm 2 mps 745 mmHg 65%
    22:00 +15°C° 0 mm 2 mps 745 mmHg 68%
    23:00 +15°C° 0 mm 2 mps 745 mmHg 71%

    Tomorrow, 23 August, Wednesday

    Time Temperature Precipitation Wind Pressure Humidity
    00:00 +14°C° 0 mm 2 mps 745 mmHg 74%
    01:00 +14°C° 0 mm 2 mps 746 mmHg 76%
    02:00 +13°C° 0 mm 2 mps 746 mmHg 79%
    03:00 +13°C° 0 mm 2 mps 745 mmHg 81%
    04:00 +12°C° 0 mm 2 mps 745 mmHg 83%
    05:00 +13°C° 0 mm 2 mps 746 mmHg 78%
    06:00 +14°C° 0 mm 2 mps 746 mmHg 74%
    07:00 +15°C° 0 mm 2 mps 746 mmHg 69%
    08:00 +17°C° 0 mm 2 mps 746 mmHg 62%
    09:00 +19°C° 0 mm 2 mps 746 mmHg 55%
    10:00 +21°C° 0 mm 2 mps 746 mmHg 48%
    11:00 +23°C° 0 mm 2 mps 746 mmHg 44%
    12:00 +24°C° 0 mm 2 mps 746 mmHg 41%
    13:00 +25°C° 0 mm 2 mps 745 mmHg 37%
    14:00 +25°C° 0 mm 2 mps 745 mmHg 36%
    15:00 +25°C° 0 mm 2 mps 745 mmHg 35%
    16:00 +26°C° 0 mm 2 mps 745 mmHg 35%
    17:00 +24°C° 0 mm 2 mps 745 mmHg 39%
    18:00 +22°C° 0 mm 1 mps 745 mmHg 44%
    19:00 +20°C° 0 mm 1 mps 745 mmHg 49%
    20:00 +19°C° 0 mm 1 mps 745 mmHg 51%
    21:00 +18°C° 0 mm 1 mps 745 mmHg 53%
    22:00 +16°C° 0 mm 1 mps 745 mmHg 54%
    23:00 +16°C° 0 mm 1 mps 745 mmHg 57%

    Day after tomorrow, 24 August, Thursday

    Time Temperature Precipitation Wind Pressure Humidity
    00:00 +14°C° 0 mm 0 mps 745 mmHg 59%
    01:00 +14°C° 0 mm 0 mps 745 mmHg 61%
    02:00 +13°C° 0 mm 0 mps 745 mmHg 62%
    03:00 +13°C° 0 mm 0 mps 745 mmHg 64%
    04:00 +13°C° 0 mm 0 mps 745 mmHg 65%
    05:00 +14°C° 0 mm 0 mps 745 mmHg 62%
    06:00 +15°C° 0 mm 0 mps 745 mmHg 60%
    07:00 +19°C° 0 mm 1 mps 745 mmHg 57%
    08:00 +21°C° 0 mm 1 mps 745 mmHg 52%
    09:00 +23°C° 0 mm 1 mps 746 mmHg 47%
    10:00 +26°C° 0 mm 2 mps 746 mmHg 42%
    11:00 +27°C° 0 mm 2 mps 745 mmHg 40%
    12:00 +29°C° 0 mm 2 mps 745 mmHg 38%
    13:00 +30°C° 0 mm 2 mps 745 mmHg 37%
    14:00 +30°C° 0 mm 2 mps 745 mmHg 37%
    15:00 +31°C° 0 mm 2 mps 744 mmHg 38%
    16:00 +31°C° 0 mm 2 mps 744 mmHg 39%
    17:00 +29°C° 0.1 mm 2 mps 744 mmHg 45%
    18:00 +27°C° 0.1 mm 2 mps 744 mmHg 52%
    19:00 +25°C° 0.1 mm 1 mps 744 mmHg 59%
    20:00 +24°C° 0 mm 1 mps 744 mmHg 62%
    21:00 +23°C° 0 mm 1 mps 745 mmHg 64%
    22:00 +21°C° 0 mm 2 mps 745 mmHg 67%
    23:00 +22°C° 0.1 mm 1 mps 745 mmHg 68%

    25 August, Friday

    Time Temperature Precipitation Wind Pressure Humidity
    00:00 +22°C° 0.1 mm 1 mps 745 mmHg 70%
    01:00 +22°C° 0.1 mm 1 mps 745 mmHg 71%
    02:00 +22°C° 0 mm 1 mps 745 mmHg 73%
    03:00 +21°C° 0 mm 1 mps 745 mmHg 76%
    04:00 +21°C° 0 mm 1 mps 745 mmHg 78%
    05:00 +22°C° 0 mm 1 mps 745 mmHg 76%
    06:00 +23°C° 0 mm 1 mps 745 mmHg 74%
    07:00 +23°C° 0 mm 1 mps 746 mmHg 71%
    08:00 +25°C° 0 mm 1 mps 746 mmHg 63%
    09:00 +28°C° 0 mm 1 mps 746 mmHg 56%
    10:00 +30°C° 0 mm 1 mps 746 mmHg 48%
    11:00 +31°C° 0 mm 1 mps 746 mmHg 44%
    12:00 +32°C° 0 mm 1 mps 745 mmHg 41%
    13:00 +33°C° 0 mm 1 mps 745 mmHg 37%
    14:00 +33°C° 0 mm 1 mps 745 mmHg 36%
    15:00 +33°C° 0 mm 1 mps 745 mmHg 36%
    16:00 +33°C° 0 mm 1 mps 744 mmHg 35%
    17:00 +31°C° 0 mm 1 mps 744 mmHg 40%
    18:00 +29°C° 0 mm 1 mps 744 mmHg 44%
    19:00 +27°C° 0 mm 1 mps 744 mmHg 49%
    20:00 +26°C° 0 mm 1 mps 745 mmHg 53%
    21:00 +25°C° 0 mm 1 mps 745 mmHg 56%
    22:00 +24°C° 0 mm 2 mps 745 mmHg 60%
    23:00 +23°C° 0 mm 1 mps 745 mmHg 64%

    26 August, Saturday

    Time Temperature Precipitation Wind Pressure Humidity
    00:00 +23°C° 0 mm 1 mps 745 mmHg 67%
    01:00 +22°C° 0 mm 1 mps 745 mmHg 71%
    02:00 +22°C° 0 mm 1 mps 745 mmHg 72%
    03:00 +21°C° 0 mm 1 mps 744 mmHg 74%
    04:00 +21°C° 0 mm 1 mps 744 mmHg 76%
    05:00 +22°C° 0 mm 1 mps 745 mmHg 73%
    06:00 +23°C° 0 mm 1 mps 745 mmHg 70%
    07:00 +24°C° 0 mm 1 mps 745 mmHg 67%
    08:00 +26°C° 0 mm 1 mps 745 mmHg 60%
    09:00 +28°C° 0 mm 1 mps 745 mmHg 53%
    10:00 +30°C° 0 mm 1 mps 745 mmHg 46%
    11:00 +31°C° 0 mm 1 mps 745 mmHg 42%
    12:00 +33°C° 0 mm 1 mps 745 mmHg 39%
    13:00 +35°C° 0 mm 2 mps 744 mmHg 35%
    14:00 +35°C° 0 mm 2 mps 744 mmHg 33%
    15:00 +35°C° 0 mm 1 mps 744 mmHg 32%
    16:00 +35°C° 0 mm 1 mps 744 mmHg 31%
    17:00 +33°C° 0 mm 1 mps 744 mmHg 35%
    18:00 +31°C° 0 mm 1 mps 744 mmHg 40%
    19:00 +29°C° 0 mm 1 mps 744 mmHg 44%
    20:00 +28°C° 0 mm 1 mps 744 mmHg 47%
    21:00 +27°C° 0 mm 1 mps 744 mmHg 49%
    22:00 +26°C° 0 mm 1 mps 744 mmHg 52%
    23:00 +25°C° 0 mm 1 mps 744 mmHg 54%

    27 August, Sunday

    Time Temperature Precipitation Wind Pressure Humidity
    00:00 +24°C° 0 mm 1 mps 744 mmHg 55%
    01:00 +24°C° 0 mm 1 mps 744 mmHg 57%
    02:00 +23°C° 0 mm 1 mps 744 mmHg 59%
    03:00 +23°C° 0 mm 1 mps 743 mmHg 61%
    04:00 +22°C° 0 mm 1 mps 743 mmHg 63%
    05:00 +23°C° 0 mm 1 mps 744 mmHg 61%
    06:00 +24°C° 0 mm 1 mps 744 mmHg 59%
    07:00 +25°C° 0 mm 1 mps 744 mmHg 57%
    08:00 +27°C° 0 mm 1 mps 744 mmHg 51%
    09:00 +29°C° 0 mm 1 mps 744 mmHg 45%
    10:00 +32°C° 0 mm 1 mps 744 mmHg 39%
    11:00 +33°C° 0 mm 1 mps 744 mmHg 35%
    12:00 +35°C° 0 mm 2 mps 743 mmHg 32%
    13:00 +37°C° 0 mm 2 mps 743 mmHg 28%
    14:00 +37°C° 0 mm 2 mps 743 mmHg 28%
    15:00 +36°C° 0 mm 1 mps 743 mmHg 27%
    16:00 +36°C° 0 mm 1 mps 742 mmHg 26%
    17:00 +34°C° 0 mm 1 mps 742 mmHg 31%
    18:00 +32°C° 0 mm 1 mps 742 mmHg 35%
    19:00 +29°C° 0 mm 1 mps 742 mmHg 40%
    20:00 +28°C° 0 mm 1 mps 742 mmHg 42%
    21:00 +27°C° 0 mm 1 mps 742 mmHg 45%
    22:00 +27°C° 0 mm 1 mps 743 mmHg 47%
    23:00 +26°C° 0 mm 1 mps 742 mmHg 49%
    Show more